This is the latest recevied weather packets stored in our database for station/object KB9ZGZ. If no packets are shown the sender has not sent any weather packets the latest 10 day(s).
| Time | Temp. | Humidity | Pressure | Rain* | Wind** | Luminosity | Snow |
|---|---|---|---|---|---|---|---|
| 1777502764 | 15° C | 52% | 1011.7 hPa | 0.25 mm | - | - | - |
| 1777501851 | 15.56° C | 52% | 1011.4 hPa | 0.25 mm | - | - | - |
| 1777500943 | 16.11° C | 51% | 1011.6 hPa | 0.25 mm | - | - | - |
| 1777500042 | 16.11° C | 54% | 1011.4 hPa | 0.25 mm | - | - | - |
| 1777499144 | 16.11° C | 54% | 1011.6 hPa | 0.25 mm | - | - | - |
| 1777498238 | 16.11° C | 52% | 1011.6 hPa | 0.25 mm | - | - | - |
| 1777497337 | 16.67° C | 54% | 1011.7 hPa | 0.25 mm | - | - | - |
| 1777496439 | 16.11° C | 57% | 1011.7 hPa | 0.25 mm | - | - | - |
| 1777495535 | 15.56° C | 55% | 1011.8 hPa | 0 mm | - | - | - |
| 1777494631 | 16.11° C | 58% | 1012.1 hPa | 0 mm | - | - | - |
| 1777493731 | 16.11° C | 59% | 1012.2 hPa | 0 mm | - | - | - |
| 1777492827 | 16.11° C | 56% | 1012.1 hPa | 0 mm | - | - | - |
| 1777491926 | 16.11° C | 62% | 1012.2 hPa | 0 mm | - | - | - |
| 1777491025 | 16.67° C | 62% | 1012.2 hPa | 0 mm | - | - | - |
| 1777490125 | 16.67° C | 60% | 1012.2 hPa | 0 mm | - | - | - |
| 1777489228 | 16.67° C | 62% | 1012.2 hPa | 0 mm | - | - | - |
| 1777488322 | 16.67° C | 60% | 1012.2 hPa | 0 mm | - | - | - |
| 1777487418 | 16.11° C | 67% | 1012.2 hPa | 0 mm | - | - | - |
| 1777486518 | 16.11° C | 62% | 1012.2 hPa | 0 mm | - | - | - |
| 1777485615 | 16.11° C | 65% | 1012.2 hPa | 0 mm | - | - | - |
| 1777484716 | 16.11° C | 66% | 1012.1 hPa | 0 mm | - | - | - |
| 1777483813 | 16.11° C | 67% | 1012 hPa | 0 mm | - | - | - |
| 1777482925 | 16.11° C | 66% | 1012.1 hPa | 0 mm | - | - | - |
| 1777482009 | 16.11° C | 65% | 1012 hPa | 0 mm | - | - | - |
| 1777481105 | 16.11° C | 67% | 1012 hPa | 0.51 mm | - | - | - |
* Rain since midnight (hover to see other rain measurements)
** Current wind speed in m/s (hover to see current wind gust speed)